SCP
-0 -0 -0 -0 -0 -0 0 0 0 0 0 0 0 0 0 0 0 0 0 0 -0 0 0 0 0 0 0 0 0 0 0 0
-0 -0 -0 -0 -0 -0 -0 0 0 0 0 0 0 0 0 0 0 0 0 0 -0 -0 0 0 0 0 0 -0 0 0 0 0
-0 -0 -0 -0 -0 -0 -0 -0 0 0 0 -0 0 0 0 0 0 0 0 0 -0 -0 0 0 0 -0 0 -0 -0 -0 0 -0
-0 -0 -0 -0 -0 -0 -0 -0 -0 0 0 -0 -0 0 0 0 0 -0 -0 0 -0 -0 0 0 0 0 0 0 -0 -0 -0 -0
-0 -0 -0 -0 -0 -0 -0 -0 -0 -0 -0 -0 -0 0 0 0 -0 0 0 0 0 0 -0 0 0 0 0 0 0 0 0 0
-0 -0 -0 -0 -0 -0 -0 -0 -0 -0 -0 -0 -0 -0 0 0 0 0 0 0 0 0 0 0 0 0 0 0 0 0 0 0
-0 -0 -0 -0 -0 -0 -0 -0 -0 -0 -0 -0 -0 0 0 0 0 0 0 0 0 0 0 0 0 0 0 0 0 0 0 0
-0 -0 -0 -0 -0 -0 -0 -0 -0 -0 -0 -0 -0 0 0 0 0 0 0 0 0 0 0 0 0 0 -0 -0 -0 -0 -0 0
-0 -0 -0 -0 -0 -0 -0 -0 -0 -0 -0 -0 -0 -0 0 0 0 0 0 0 0 -0 0 0 0 -0 -0 -0 -0 0 0 0
-0 -0 0 -0 -0 -0 -0 -0 -0 -0 -0 -0 -0 -0 -0 -0 -0 -0 -0 0 0 0 0 0 -0 0 0 0 0 -0 -0 -0
-0 -0 -0 -0 -0 -0 -0 -0 -0 -0 0 -0 -0 -0 -0 -0 -0 -0 -0 0 0 0 0 0 0 -0 0 0 0 0 0 0
0 0 -0 -0 -0 0 0 -0 -0 -0 0 -0 -0 -0 0 -0 -0 -0 -0 -0 -0 -0 -0 0 0 -0 -0 -0 -0 -0 0 -0
0 0 0 -0 -0 0 0 0 -0 0 0 0 0 0 0 0 0 0 -0 -0 -0 -0 0 -0 -0 0 0 -0 0 0 0 0
0 0 0 0 0 0 0 0 0 0 0 0 0 0 0 0 0 0 0 0 -0 -0 0 0 0 0 -0 -0 0 0 0 0
0 0 0 0 0 0 0 0 0 0 0 0 0 0 0 0 0 0 0 0 0 0 0 0 0 0 -0 -0 0 0 0 0
0 0 0 0 0 0 0 0 0 0 0 0 0 0 0 0 0 0 0 0 0 0 0 0 0 0 0 0 0 0 0 0
0 0 0 0 0 0 0 0 0 0 1 0 0 0 0 0 0 0 0 0 0 0 0 0 0 0 0 0 0 0 0 0
0 0 0 0 0 0 0 0 0 1 1 0 0 0 0 0 0 0 0 0 0 0 0 0 0 0 0 0 0 0 0 0
0 0 0 0 0 0 0 0 1 0 1 1 0 0 0 0 0 0 0 0 0 0 0 0 0 0 0 0 0 0 0 0
1 0 1 1 1 1 0 0 1 0 1 1 0 0 0 0 0 0 0 0 0 0 0 0 0 0 0 0 0 0 0 0
Wind_Speed_500mb
42 42 40 38 35 34 27 25 21 18 16 14 16 14 15 14 14 23 32 29 27 34 36 39 39 44 39 36 36 38 39 37
43 43 42 41 38 36 31 27 25 21 21 16 19 16 15 21 23 18 28 31 40 38 36 31 32 34 30 34 38 43 38 37
47 45 45 45 43 39 34 29 30 26 24 22 22 21 22 23 23 24 24 28 38 37 41 37 24 35 38 41 43 41 42 49
49 47 46 48 49 45 39 33 34 29 28 25 24 25 24 26 24 27 25 28 25 25 28 33 33 41 31 39 44 42 47 44
54 53 51 52 52 48 45 38 37 34 31 29 29 31 28 27 25 27 29 27 28 26 13 29 38 41 39 39 38 43 45 41
59 57 54 55 52 50 46 42 39 37 34 31 33 32 31 30 27 27 31 33 26 21 18 30 35 37 39 41 38 38 41 43
60 61 57 56 55 53 51 47 44 40 37 36 35 37 37 35 32 32 25 34 31 28 22 26 31 35 41 38 32 37 36 40
54 62 63 59 59 59 58 53 50 46 41 39 35 38 40 39 39 35 28 31 31 30 23 20 25 35 36 34 29 23 30 35
49 67 69 66 66 65 65 59 56 49 42 40 38 38 43 41 41 40 36 33 27 29 25 26 23 32 37 38 36 27 22 29
50 64 71 69 69 69 67 63 56 50 46 43 42 41 42 43 44 41 37 38 33 35 32 29 28 30 38 41 41 30 27 24
45 55 66 69 71 74 72 64 57 52 49 48 48 46 40 44 47 43 39 42 34 39 34 35 31 32 39 47 51 41 39 33
46 54 65 70 70 71 72 65 61 55 53 53 54 50 42 44 44 48 44 44 45 36 39 35 36 34 39 53 60 52 50 39
47 46 56 63 65 67 68 67 66 61 59 57 57 56 47 48 43 43 44 41 46 42 41 37 40 45 42 53 58 55 57 46
44 38 38 56 60 63 67 71 69 67 65 63 63 57 52 52 49 43 35 39 30 43 38 38 39 42 35 45 52 52 53 48
42 44 42 43 56 56 64 72 71 75 69 68 65 61 56 57 50 51 52 49 44 46 48 46 45 45 42 39 46 49 46 43
39 45 44 42 46 58 60 68 72 75 75 70 69 70 57 59 58 56 50 54 58 55 60 53 54 44 54 48 45 47 45 42
26 30 31 37 41 52 54 63 71 74 79 76 72 63 67 57 57 57 58 51 56 65 61 67 60 57 46 49 51 53 50 47
25 31 27 33 39 45 51 57 65 65 77 80 79 71 63 63 62 63 62 61 57 60 61 68 74 62 57 60 61 56 48 36
17 16 26 24 31 39 43 50 60 66 70 76 81 74 69 65 64 67 67 65 66 65 70 60 57 82 80 73 66 64 56 47
27 20 12 21 22 26 38 46 53 58 57 66 76 81 73 77 59 70 62 69 67 68 70 79 61 45 74 86 81 73 57 53
Wind_Direction_500mb
175 178 180 187 184 185 185 187 188 187 178 174 153 140 140 108 105 99 90 87 109 124 135 127 142 145 148 149 152 158 161 153
178 180 184 188 186 186 184 186 184 184 181 175 160 148 127 105 102 92 89 101 100 113 127 121 129 142 139 138 144 154 156 148
182 184 185 187 186 187 187 186 183 182 182 178 167 158 144 130 118 116 111 99 107 98 104 101 120 126 130 126 126 131 137 129
186 186 188 187 187 188 188 185 184 182 182 183 175 165 154 149 145 129 123 119 109 104 115 125 122 116 119 133 131 129 130 135
187 187 190 190 189 190 187 186 185 181 183 185 181 172 171 163 155 149 141 137 129 138 118 133 136 129 123 123 129 138 147 145
187 186 188 188 188 190 187 186 187 185 185 186 184 179 179 169 169 168 167 157 146 144 137 142 138 132 131 129 131 131 133 137
188 185 183 184 189 189 189 187 188 188 188 187 187 185 185 178 179 188 188 168 161 149 158 168 167 155 145 145 147 148 150 145
183 181 179 188 190 191 190 191 189 192 191 189 189 187 190 185 185 194 193 175 171 159 175 183 183 182 177 169 150 166 168 166
179 181 183 194 191 193 192 192 194 193 192 191 191 190 193 192 192 205 199 181 183 172 189 185 205 192 189 181 165 176 198 186
176 178 182 193 194 194 194 197 196 193 194 191 191 191 192 195 198 204 205 186 193 182 198 204 202 203 195 188 176 173 177 168
177 179 181 192 197 198 197 198 196 194 196 193 192 197 192 199 197 198 204 196 193 200 195 206 201 218 193 187 182 180 172 172
179 182 178 188 203 202 200 195 196 196 198 194 193 201 196 205 209 210 209 203 188 211 202 204 197 219 198 190 187 184 178 178
179 191 182 190 202 195 198 194 195 198 198 196 198 203 204 205 216 208 203 215 201 203 202 204 197 212 214 198 195 190 187 186
179 187 191 188 195 197 199 196 198 198 198 198 195 193 206 203 214 204 216 208 224 196 207 209 205 216 219 202 203 199 198 201
187 191 200 202 195 199 202 200 199 201 200 198 197 196 203 201 208 200 208 204 216 205 204 207 211 210 216 213 206 206 208 209
202 198 196 205 203 200 202 202 202 203 201 202 200 201 203 208 206 208 209 215 211 211 207 211 215 212 211 216 217 213 207 209
194 207 209 208 208 203 202 201 203 206 201 202 203 206 206 212 209 212 210 216 220 221 216 213 217 219 210 213 216 219 219 218
216 192 214 214 208 203 199 201 203 206 205 202 204 204 212 211 214 210 213 214 218 218 228 221 216 216 210 202 206 208 208 216
186 189 213 232 213 199 199 203 205 202 206 206 207 207 208 214 214 213 213 215 216 217 217 229 222 221 218 219 215 212 217 226
182 205 206 224 207 196 200 202 205 206 207 209 213 212 217 217 221 220 219 218 218 219 217 229 224 206 226 225 225 229 233 220
Wind_Speed_850mb
42 42 40 38 35 34 27 25 21 18 16 14 16 14 15 14 14 23 32 29 27 34 36 39 39 44 39 36 36 38 39 37
43 43 42 41 38 36 31 27 25 21 21 16 19 16 15 21 23 18 28 31 40 38 36 31 32 34 30 34 38 43 38 37
47 45 45 45 43 39 34 29 30 26 24 22 22 21 22 23 23 24 24 28 38 37 41 37 24 35 38 41 43 41 42 49
49 47 46 48 49 45 39 33 34 29 28 25 24 25 24 26 24 27 25 28 25 25 28 33 33 41 31 39 44 42 47 44
54 53 51 52 52 48 45 38 37 34 31 29 29 31 28 27 25 27 29 27 28 26 13 29 38 41 39 39 38 43 45 41
59 57 54 55 52 50 46 42 39 37 34 31 33 32 31 30 27 27 31 33 26 21 18 30 35 37 39 41 38 38 41 43
60 61 57 56 55 53 51 47 44 40 37 36 35 37 37 35 32 32 25 34 31 28 22 26 31 35 41 38 32 37 36 40
54 62 63 59 59 59 58 53 50 46 41 39 35 38 40 39 39 35 28 31 31 30 23 20 25 35 36 34 29 23 30 35
49 67 69 66 66 65 65 59 56 49 42 40 38 38 43 41 41 40 36 33 27 29 25 26 23 32 37 38 36 27 22 29
50 64 71 69 69 69 67 63 56 50 46 43 42 41 42 43 44 41 37 38 33 35 32 29 28 30 38 41 41 30 27 24
45 55 66 69 71 74 72 64 57 52 49 48 48 46 40 44 47 43 39 42 34 39 34 35 31 32 39 47 51 41 39 33
46 54 65 70 70 71 72 65 61 55 53 53 54 50 42 44 44 48 44 44 45 36 39 35 36 34 39 53 60 52 50 39
47 46 56 63 65 67 68 67 66 61 59 57 57 56 47 48 43 43 44 41 46 42 41 37 40 45 42 53 58 55 57 46
44 38 38 56 60 63 67 71 69 67 65 63 63 57 52 52 49 43 35 39 30 43 38 38 39 42 35 45 52 52 53 48
42 44 42 43 56 56 64 72 71 75 69 68 65 61 56 57 50 51 52 49 44 46 48 46 45 45 42 39 46 49 46 43
39 45 44 42 46 58 60 68 72 75 75 70 69 70 57 59 58 56 50 54 58 55 60 53 54 44 54 48 45 47 45 42
26 30 31 37 41 52 54 63 71 74 79 76 72 63 67 57 57 57 58 51 56 65 61 67 60 57 46 49 51 53 50 47
25 31 27 33 39 45 51 57 65 65 77 80 79 71 63 63 62 63 62 61 57 60 61 68 74 62 57 60 61 56 48 36
17 16 26 24 31 39 43 50 60 66 70 76 81 74 69 65 64 67 67 65 66 65 70 60 57 82 80 73 66 64 56 47
27 20 12 21 22 26 38 46 53 58 57 66 76 81 73 77 59 70 62 69 67 68 70 79 61 45 74 86 81 73 57 53
Wind_Direction_850mb
175 178 180 187 184 185 185 187 188 187 178 174 153 140 140 108 105 99 90 87 109 124 135 127 142 145 148 149 152 158 161 153
178 180 184 188 186 186 184 186 184 184 181 175 160 148 127 105 102 92 89 101 100 113 127 121 129 142 139 138 144 154 156 148
182 184 185 187 186 187 187 186 183 182 182 178 167 158 144 130 118 116 111 99 107 98 104 101 120 126 130 126 126 131 137 129
186 186 188 187 187 188 188 185 184 182 182 183 175 165 154 149 145 129 123 119 109 104 115 125 122 116 119 133 131 129 130 135
187 187 190 190 189 190 187 186 185 181 183 185 181 172 171 163 155 149 141 137 129 138 118 133 136 129 123 123 129 138 147 145
187 186 188 188 188 190 187 186 187 185 185 186 184 179 179 169 169 168 167 157 146 144 137 142 138 132 131 129 131 131 133 137
188 185 183 184 189 189 189 187 188 188 188 187 187 185 185 178 179 188 188 168 161 149 158 168 167 155 145 145 147 148 150 145
183 181 179 188 190 191 190 191 189 192 191 189 189 187 190 185 185 194 193 175 171 159 175 183 183 182 177 169 150 166 168 166
179 181 183 194 191 193 192 192 194 193 192 191 191 190 193 192 192 205 199 181 183 172 189 185 205 192 189 181 165 176 198 186
176 178 182 193 194 194 194 197 196 193 194 191 191 191 192 195 198 204 205 186 193 182 198 204 202 203 195 188 176 173 177 168
177 179 181 192 197 198 197 198 196 194 196 193 192 197 192 199 197 198 204 196 193 200 195 206 201 218 193 187 182 180 172 172
179 182 178 188 203 202 200 195 196 196 198 194 193 201 196 205 209 210 209 203 188 211 202 204 197 219 198 190 187 184 178 178
179 191 182 190 202 195 198 194 195 198 198 196 198 203 204 205 216 208 203 215 201 203 202 204 197 212 214 198 195 190 187 186
179 187 191 188 195 197 199 196 198 198 198 198 195 193 206 203 214 204 216 208 224 196 207 209 205 216 219 202 203 199 198 201
187 191 200 202 195 199 202 200 199 201 200 198 197 196 203 201 208 200 208 204 216 205 204 207 211 210 216 213 206 206 208 209
202 198 196 205 203 200 202 202 202 203 201 202 200 201 203 208 206 208 209 215 211 211 207 211 215 212 211 216 217 213 207 209
194 207 209 208 208 203 202 201 203 206 201 202 203 206 206 212 209 212 210 216 220 221 216 213 217 219 210 213 216 219 219 218
216 192 214 214 208 203 199 201 203 206 205 202 204 204 212 211 214 210 213 214 218 218 228 221 216 216 210 202 206 208 208 216
186 189 213 232 213 199 199 203 205 202 206 206 207 207 208 214 214 213 213 215 216 217 217 229 222 221 218 219 215 212 217 226
182 205 206 224 207 196 200 202 205 206 207 209 213 212 217 217 221 220 219 218 218 219 217 229 224 206 226 225 225 229 233 220